Weather in Puerto Jimenez

Costa Rica     8°31′59″N   83°18′06″W
В апреле 2022 года жителям России запретили посещать сайт meteo.paraplan.net по решению Генеральной прокуратуры. Аудитория сайта уменьшилась в 10 раз. Владельцы сайта не видят смысла в поддержке погодного сервера в таких условиях. Сайт будет закрыт в октябре.
temp.,
°C
wind,
m/s
gust,
m/s
humid.,
%
clouds,
%
prec.,
mm/h
press.,
hPa
HPBL,
m
30 september, fri
fri3000:00+24nw1292100 3.0 101090
03:00+24nw2294100 0.5 1009120
06:00+24nw229375 0.6 1010141
09:00+27w1282100 0.6 1011545
12:00+27sw348283 4.9 1009586
15:00+26wsw3586100 5.9 1007478
18:00+24wnw2291100 11.7 1009117
21:00+24nnw2294100 4.8 1011132
1 october, sat
sat100:00+23w1193100 5.6 1010119
03:00+24wnw1192100 1.2 1009143
06:00+24nw1192100 3.3 101070
09:00+25wnw1187100 1.2 1012340
12:00+25sw2386100 6.8 1011424
15:00+24wsw3492100 5.8 1010283
18:00+23nw1296100 15.8 101295
21:00+23nnw1195100 1.5 1013118
2 october, sun
sun200:00+23nnw1194100 1.5 1012134
03:00+23nne1193100 0.0 1011108
06:00+23nnw0193100 0.0 101291
09:00+26nne018079 0.0 1014484
12:00+27sw3276100 0.3 1012586
15:00+27sw2377100 0.8 1010685
18:00+25nw1286100 3.1 1012142
21:00+24nnw229199 0.1 1014107
3 october, mon
mon300:00+24nw2392100 0.1 1013128
03:00+24nnw229295 0.0 1011120
06:00+24nnw129235 0.0 1013107
09:00+27s008239 1.8 1014313
12:00+28ssw337715 3.3 1012734
15:00+26sw3584100 2.8 1010413
18:00+25wnw2488100 4.6 1011227
21:00+24nw229248 0.0 1013115
4 october, tue
tue400:00+24nnw1193100 0.0 101279
03:00+24n119369 0.0 101083
06:00+24n119299 0.0 101170
09:00+27e118150 1.3 1013237
12:00+28ssw337480 1.8 1011734
15:00+28ssw3374100 1.6 1009698
18:00+25sw1287100 5.7 1010117
21:00+25nw118796 1.1 101282